Tiempo cada hora Aalen

Hoy, 21 Octubre, Miércoles

Tiempo Temperatura Precipitaciones Viento Presión Humedad
00:00 +8°C° 0 mm 2 mps 720 mmHg 69%
01:00 +8°C° 0 mm 2 mps 719 mmHg 67%
02:00 +8°C° 0 mm 2 mps 719 mmHg 69%
03:00 +8°C° 0 mm 2 mps 719 mmHg 71%
04:00 +8°C° 0 mm 1 mps 718 mmHg 73%
05:00 +8°C° 0 mm 1 mps 718 mmHg 72%
06:00 +8°C° 0 mm 1 mps 718 mmHg 71%
07:00 +8°C° 0 mm 1 mps 718 mmHg 69%
08:00 +9°C° 0 mm 2 mps 718 mmHg 66%
09:00 +10°C° 0 mm 2 mps 718 mmHg 63%
10:00 +13°C° 0 mm 2 mps 719 mmHg 61%
11:00 +15°C° 0 mm 2 mps 719 mmHg 59%
12:00 +17°C° 0 mm 2 mps 719 mmHg 58%
13:00 +19°C° 0 mm 2 mps 719 mmHg 57%
14:00 +18°C° 0 mm 2 mps 719 mmHg 61%
15:00 +18°C° 0 mm 2 mps 719 mmHg 66%
16:00 +17°C° 0 mm 2 mps 719 mmHg 71%
17:00 +16°C° 0 mm 2 mps 719 mmHg 69%
18:00 +16°C° 0 mm 2 mps 720 mmHg 67%
19:00 +15°C° 0 mm 2 mps 720 mmHg 66%
20:00 +14°C° 0 mm 2 mps 721 mmHg 65%
21:00 +14°C° 0 mm 2 mps 721 mmHg 65%
22:00 +14°C° 0 mm 2 mps 722 mmHg 65%
23:00 +14°C° 0 mm 2 mps 722 mmHg 66%

Mañana, 22 Octubre, Jueves

Tiempo Temperatura Precipitaciones Viento Presión Humedad
00:00 +13°C° 0 mm 3 mps 722 mmHg 66%
01:00 +13°C° 0 mm 3 mps 723 mmHg 67%
02:00 +13°C° 0 mm 3 mps 722 mmHg 69%
03:00 +12°C° 0 mm 3 mps 722 mmHg 72%
04:00 +12°C° 0 mm 3 mps 722 mmHg 74%
05:00 +11°C° 0 mm 3 mps 722 mmHg 76%
06:00 +11°C° 0 mm 3 mps 723 mmHg 78%
07:00 +10°C° 0 mm 3 mps 723 mmHg 80%
08:00 +12°C° 0 mm 3 mps 723 mmHg 75%
09:00 +13°C° 0 mm 3 mps 723 mmHg 71%
10:00 +16°C° 0 mm 3 mps 723 mmHg 66%
11:00 +17°C° 0 mm 3 mps 723 mmHg 64%
12:00 +18°C° 0 mm 3 mps 723 mmHg 61%
13:00 +18°C° 0 mm 4 mps 723 mmHg 58%
14:00 +18°C° 0 mm 3 mps 723 mmHg 62%
15:00 +17°C° 0 mm 3 mps 723 mmHg 66%
16:00 +17°C° 0 mm 2 mps 722 mmHg 70%
17:00 +16°C° 0 mm 3 mps 722 mmHg 72%
18:00 +14°C° 0 mm 3 mps 723 mmHg 75%
19:00 +13°C° 0 mm 3 mps 723 mmHg 77%
20:00 +13°C° 0 mm 3 mps 723 mmHg 78%
21:00 +13°C° 0 mm 3 mps 723 mmHg 80%
22:00 +13°C° 0 mm 3 mps 723 mmHg 81%
23:00 +13°C° 0 mm 3 mps 723 mmHg 81%

Pasado mañana, 23 Octubre, Viernes

Tiempo Temperatura Precipitaciones Viento Presión Humedad
00:00 +13°C° 0 mm 2 mps 722 mmHg 80%
01:00 +13°C° 0 mm 2 mps 722 mmHg 80%
02:00 +13°C° 0.2 mm 3 mps 722 mmHg 82%
03:00 +13°C° 0.2 mm 3 mps 722 mmHg 83%
04:00 +13°C° 0.2 mm 4 mps 722 mmHg 85%
05:00 +13°C° 0.4 mm 4 mps 721 mmHg 87%
06:00 +13°C° 0.4 mm 4 mps 721 mmHg 89%
07:00 +12°C° 0.4 mm 4 mps 721 mmHg 91%
08:00 +12°C° 0.9 mm 4 mps 721 mmHg 92%
09:00 +12°C° 0.9 mm 3 mps 721 mmHg 93%
10:00 +12°C° 0.9 mm 3 mps 721 mmHg 95%
11:00 +13°C° 0.6 mm 2 mps 721 mmHg 95%
12:00 +13°C° 0.6 mm 2 mps 721 mmHg 95%
13:00 +13°C° 0.6 mm 2 mps 721 mmHg 95%
14:00 +13°C° 1 mm 2 mps 720 mmHg 96%
15:00 +13°C° 1 mm 2 mps 720 mmHg 96%
16:00 +13°C° 1 mm 2 mps 720 mmHg 96%
17:00 +13°C° 0.9 mm 2 mps 720 mmHg 97%
18:00 +13°C° 0.9 mm 2 mps 721 mmHg 97%
19:00 +13°C° 0.9 mm 2 mps 721 mmHg 97%
20:00 +12°C° 0.4 mm 3 mps 721 mmHg 96%
21:00 +12°C° 0.4 mm 3 mps 722 mmHg 95%
22:00 +12°C° 0.4 mm 4 mps 722 mmHg 94%
23:00 +11°C° 0.3 mm 3 mps 722 mmHg 95%

24 Octubre, Sábado

Tiempo Temperatura Precipitaciones Viento Presión Humedad
00:00 +10°C° 0.3 mm 3 mps 722 mmHg 95%
01:00 +10°C° 0.3 mm 3 mps 722 mmHg 95%
02:00 +10°C° 0 mm 3 mps 723 mmHg 95%
03:00 +9°C° 0 mm 3 mps 723 mmHg 95%
04:00 +9°C° 0 mm 3 mps 723 mmHg 95%
05:00 +9°C° 0 mm 3 mps 723 mmHg 94%
06:00 +9°C° 0 mm 3 mps 723 mmHg 94%
07:00 +8°C° 0 mm 3 mps 724 mmHg 93%
08:00 +10°C° 0 mm 3 mps 724 mmHg 90%
09:00 +11°C° 0 mm 4 mps 724 mmHg 87%
10:00 +12°C° 0 mm 5 mps 724 mmHg 83%
11:00 +13°C° 0.1 mm 5 mps 724 mmHg 80%
12:00 +13°C° 0.1 mm 4 mps 724 mmHg 77%
13:00 +14°C° 0.1 mm 4 mps 724 mmHg 74%
14:00 +13°C° 0 mm 4 mps 724 mmHg 75%
15:00 +13°C° 0 mm 3 mps 724 mmHg 76%
16:00 +14°C° 0 mm 2 mps 723 mmHg 77%
17:00 +13°C° 0 mm 2 mps 723 mmHg 80%
18:00 +10°C° 0 mm 2 mps 723 mmHg 84%
19:00 +9°C° 0 mm 2 mps 723 mmHg 88%
20:00 +9°C° 0 mm 2 mps 723 mmHg 89%
21:00 +8°C° 0 mm 2 mps 723 mmHg 90%
22:00 +8°C° 0 mm 2 mps 723 mmHg 90%
23:00 +8°C° 0 mm 2 mps 723 mmHg 90%

25 Octubre, Domingo

Tiempo Temperatura Precipitaciones Viento Presión Humedad
00:00 +8°C° 0 mm 2 mps 722 mmHg 90%
01:00 +7°C° 0 mm 2 mps 722 mmHg 90%
02:00 +7°C° 0 mm 2 mps 722 mmHg 90%
03:00 +7°C° 0 mm 2 mps 721 mmHg 91%
04:00 +7°C° 0 mm 2 mps 721 mmHg 91%
05:00 +7°C° 0 mm 2 mps 721 mmHg 91%
06:00 +7°C° 0 mm 2 mps 720 mmHg 92%
07:00 +7°C° 0 mm 2 mps 720 mmHg 93%
08:00 +8°C° 0 mm 2 mps 720 mmHg 88%
09:00 +10°C° 0 mm 3 mps 719 mmHg 82%
10:00 +12°C° 0 mm 3 mps 719 mmHg 77%
11:00 +13°C° 0 mm 3 mps 719 mmHg 72%
12:00 +14°C° 0 mm 3 mps 718 mmHg 68%
13:00 +17°C° 0 mm 3 mps 718 mmHg 64%
14:00 +16°C° 0 mm 3 mps 717 mmHg 67%
15:00 +16°C° 0 mm 2 mps 717 mmHg 71%
16:00 +15°C° 0 mm 2 mps 716 mmHg 74%
17:00 +14°C° 0 mm 2 mps 716 mmHg 78%
18:00 +12°C° 0 mm 1 mps 716 mmHg 82%
19:00 +11°C° 0 mm 1 mps 716 mmHg 86%
20:00 +11°C° 0 mm 1 mps 716 mmHg 86%
21:00 +10°C° 0 mm 1 mps 717 mmHg 86%
22:00 +10°C° 0 mm 1 mps 717 mmHg 85%
23:00 +9°C° 0 mm 2 mps 717 mmHg 87%

26 Octubre, Lunes

Tiempo Temperatura Precipitaciones Viento Presión Humedad
00:00 +9°C° 0 mm 3 mps 717 mmHg 88%
01:00 +9°C° 0 mm 3 mps 717 mmHg 89%
02:00 +9°C° 0.1 mm 3 mps 717 mmHg 90%
03:00 +8°C° 0.1 mm 3 mps 716 mmHg 90%
04:00 +8°C° 0.1 mm 3 mps 716 mmHg 91%
05:00 +8°C° 0.7 mm 3 mps 716 mmHg 92%
06:00 +8°C° 0.7 mm 3 mps 716 mmHg 94%
07:00 +7°C° 0.7 mm 3 mps 716 mmHg 95%
08:00 +7°C° 1.1 mm 3 mps 716 mmHg 94%
09:00 +7°C° 1.1 mm 3 mps 716 mmHg 93%
10:00 +7°C° 1.1 mm 3 mps 716 mmHg 92%
11:00 +7°C° 0.8 mm 3 mps 716 mmHg 92%
12:00 +7°C° 0.8 mm 3 mps 716 mmHg 92%
13:00 +8°C° 0.8 mm 3 mps 716 mmHg 92%
14:00 +7°C° 0.9 mm 3 mps 715 mmHg 92%
15:00 +7°C° 0.9 mm 3 mps 715 mmHg 92%
16:00 +7°C° 0.9 mm 3 mps 715 mmHg 92%
17:00 +7°C° 0.4 mm 3 mps 716 mmHg 93%
18:00 +7°C° 0.4 mm 3 mps 716 mmHg 93%
19:00 +7°C° 0.4 mm 3 mps 716 mmHg 93%
20:00 +7°C° 0.2 mm 3 mps 716 mmHg 93%
21:00 +5°C° 0.2 mm 3 mps 716 mmHg 93%
22:00 +6°C° 0.2 mm 2 mps 716 mmHg 93%
23:00 +5°C° 0.4 mm 3 mps 716 mmHg 93%

27 Octubre, Martes

Tiempo Temperatura Precipitaciones Viento Presión Humedad
00:00 +5°C° 0.4 mm 3 mps 716 mmHg 92%
01:00 +5°C° 0.4 mm 3 mps 716 mmHg 92%
02:00 +5°C° 0.5 mm 3 mps 716 mmHg 93%
03:00 +5°C° 0.5 mm 3 mps 716 mmHg 93%
04:00 +5°C° 0.5 mm 4 mps 716 mmHg 94%
05:00 +5°C° 0.8 mm 4 mps 717 mmHg 94%
06:00 +5°C° 0.8 mm 4 mps 717 mmHg 95%
07:00 +5°C° 0.8 mm 4 mps 717 mmHg 95%
08:00 +5°C° 0.6 mm 4 mps 718 mmHg 95%
09:00 +6°C° 0.6 mm 5 mps 718 mmHg 95%
10:00 +6°C° 0.6 mm 5 mps 718 mmHg 94%
11:00 +6°C° 0.7 mm 5 mps 718 mmHg 94%
12:00 +6°C° 0.7 mm 4 mps 719 mmHg 95%
13:00 +6°C° 0.7 mm 4 mps 719 mmHg 95%
14:00 +6°C° 0.6 mm 4 mps 719 mmHg 95%
15:00 +7°C° 0.6 mm 3 mps 720 mmHg 95%
16:00 +7°C° 0.6 mm 3 mps 720 mmHg 95%
17:00 +7°C° 0.4 mm 3 mps 720 mmHg 95%
18:00 +7°C° 0.4 mm 3 mps 721 mmHg 95%
19:00 +7°C° 0.4 mm 2 mps 721 mmHg 95%
20:00 +7°C° 0.3 mm 2 mps 722 mmHg 95%
21:00 +7°C° 0.3 mm 2 mps 722 mmHg 95%
22:00 +7°C° 0.3 mm 2 mps 723 mmHg 95%
23:00 +7°C° 0.1 mm 2 mps 723 mmHg 95%
Mostrar más

Necesitamos Su Consentimiento

Meteoprog y nuestros Proveedores de Servicios pueden almacenar y acceder a sus datos personales como cookies, identificadores de dispositivo u otras tecnologías similares de su dispositivo y procesar dichos datos para personalizar contenido y anuncios, además de ofrecer funciones de redes sociales y analizar el tráfico.

  • Almacenar y/o acceder a información en su dispositivo

    Se puede almacenar o acceder a cookies, identificadores de dispositivo u otra información de su dispositivo para los fines anteriormente indicados.

  • Anuncios y contenido personalizados, medición de anuncios y contenido, percepciones del público, y desarrollo de productos

    Los anuncios y el contenido pueden personalizarse en base a su perfil. Se pueden añadir más datos para personalizar mejor los anuncios y contenidos. Se puede medir el rendimiento de los anuncios y contenidos. Se puede obtener la percepción sobre el público que ha visto los anuncios y contenidos. Dichos datos pueden usarse para desarrollar o mejorar la experiencia del usuario, sistemas y software.

Al hacer clic en ‘Estoy De Acuerdo’ usted permitirá el uso de las cookies, identificadores de dispositivo, balizas web u otras tecnologías similares indicadas. Su configuración puede cambiarse desde el navegador de su dispositivo.

Para ciertos fines, los intereses legítimos pueden ser considerados por encima del consentimiento. Puede leer más sobre ello en nuestra Política de Privacidad y Cookies.